STARLINK-30261 (57523 NORAD) Tracking and Keplerian Element Data

This shows tracking and keplerian element data for the satellite.

Feedback or suggestion? Click here.




ElementValue
Catalog57523
NameSTARLINK-30261
Epoch Orbit401
Epoch Day239.16667824
Epoch Year2023
RAAN359.5975
Inclination42.9994
Eccentricity0.0002182
Argument of Perigee273.1427
Mean Anonmoly82.6596
Mean Motion15.54589353
Decay Rate-0.01588206
L11 57523U 23115C 23239.16667824 -.01588206 00000+0 -25974-1 0 9992
L22 57523 42.9994 359.5975 0002182 273.1427 82.6596 15.54589353 4012



Live tracking and technical data element details for STARLINK-30261 (NORAD 57523). STARLINK-30261 can be tracked NOW for your location showing map with azimuth and elevation plus other details from your city location.







IsCatalogInMostPopularTable: catalog: 57523, numindb: 4
Update: records affected: 1



GetName: 57523 STARLINK-30261

Hit Count: updated at: Tue, 26 Sep 2023 11:22:04 GMT